Printer-friendly version

IAU Minor Planet Center

Minor Planet Center

MPEC 2003-R69 : 2003 RW10

The following Minor Planet Electronic Circular may be linked-to from your own Web pages, but must not otherwise be redistributed electronically.


Read MPEC 2003-R68 Read MPEC 2003-R70


M.P.E.C. 2003-R69                                Issued 2003 Sept. 15, 11:40 UT

     The Minor Planet Electronic Circulars contain information on unusual
         minor planets and routine data on comets.  They are published
   on behalf of Commission 20 of the International Astronomical Union by the
          Minor Planet Center, Smithsonian Astrophysical Observatory,
                          Cambridge, MA 02138, U.S.A.

         Supported in part by the Steven and Michele Kirsch Foundation
             Prepared using the Tamkin Foundation Computer Network

                              MPC@CFA.HARVARD.EDU
          URL http://cfa-www.harvard.edu/iau/mpc.html  ISSN 1523-6714

                                   2003 RW10

Observations:
     K03R10W* C2003 09 14.22776 21 06 55.50 -20 51 56.4          18.5 R      699
     K03R10W  C2003 09 14.24111 21 06 56.86 -20 51 30.7                      699
     K03R10W  C2003 09 14.25443 21 06 58.05 -20 51 06.7                      699
     K03R10W  C2003 09 14.26775 21 06 59.35 -20 50 40.4                      699
     K03R10W 1C2003 09 14.53629 21 07 27.08 -20 41 52.8          18.8 R      413
     K03R10W 1C2003 09 14.53999 21 07 27.40 -20 41 46.9          18.5 R      413
     K03R10W  C2003 09 14.82419 21 07 57.48 -20 33 22.3                      118
     K03R10W  C2003 09 14.83084 21 07 58.08 -20 33 08.7                      118
     K03R10W  C2003 09 14.84155 21 07 59.01 -20 32 47.9                      118
     K03R10W  C2003 09 14.85237 21 08 00.07 -20 32 28.3          19.0 R      118
     K03R10W  C2003 09 14.93872 21 08 08.61 -20 29 45.6          18.6 R      620
     K03R10W  C2003 09 15.16178 21 08 32.35 -20 22 52.2          19.3 R      854
     K03R10W  C2003 09 15.17192 21 08 32.83 -20 22 33.9          18.2 R      649
     K03R10W  C2003 09 15.17584 21 08 33.17 -20 22 26.4          18.1 R      649
     K03R10W  C2003 09 15.17970 21 08 33.57 -20 22 19.0          18.5 R      649
     K03R10W  C2003 09 15.18773 21 08 34.67 -20 22 04.2          19.0 R      854
     K03R10W  C2003 09 15.18954 21 08 34.91 -20 21 58.2          18.9 R      854
     K03R10W  C2003 09 15.19504 21 08 35.27 -20 21 49.3          19.2 R      448
     K03R10W  C2003 09 15.19987 21 08 35.74 -20 21 40.4          18.9 R      448
     K03R10W  C2003 09 15.20518 21 08 36.24 -20 21 30.4          18.8 R      448
     K03R10W 5C2003 09 15.29826 21 08 45.31 -20 18 37.9          18.5 R      673
     K03R10W 5C2003 09 15.30035 21 08 45.49 -20 18 34.6                      673
     K03R10W 5C2003 09 15.30243 21 08 45.69 -20 18 30.6                      673
     K03R10W 5C2003 09 15.30509 21 08 45.97 -20 18 25.4                      673
     K03R10W 1C2003 09 15.38686 21 08 55.76 -20 15 31.7          19.1 R      413
     K03R10W 1C2003 09 15.39477 21 08 56.53 -20 15 17.3          19.1 R      413

Observer details:
118 Modra.  Observers A. Galad, L. Kornos.  0.6-m f/5.5 reflector + CCD.
413 Siding Spring.  Observers R. H. McNaught, G. J. Garradd.  1.0-m f/8
    reflector + CCD.
448 Desert Moon Observatory.  Observer B. L. Stevens.  0.3-m
    Schmidt-Cassegrain + CCD.
620 Observatorio Astronomico de Mallorca.  Observers S. Sanchez, R. Stoss,
    J. Nomen.  0.30-m f/9 Schmidt-Cassegrain + CCD.
649 Powell Observatory, Louisburg.  Observer R. Fredrick.  0.75-m Newtonian
    + CCD.
673 Table Mountain Observatory, Wrightwood.  Observer J. Young.  0.6-m
    reflector + CCD.
699 Lowell Observatory-LONEOS.  Observer B. W. Koehn.  0.59-m LONEOS Schmidt
    + CCD.
854 Sabino Canyon Observatory, Tucson.  Observer J. E. McGaha.  0.30-m f/10.0
    Schmidt-Cassegrain + CCD.

Orbital elements:
2003 RW10
Epoch 2003 Aug. 29.0 TT = JDT 2452880.5                 MPC
M  12.57909              (2000.0)            P               Q
n   0.32143287     Peri.  304.43251     +0.41443789     +0.90980187
a   2.1106159      Node   349.97627     -0.78705720     +0.34594932
e   0.4310518      Incl.    7.39434     -0.45692691     +0.22930247
P   3.07           H   19.4           G   0.15
From 26 observations 2003 Sept. 14-15.

Ephemeris:
2003 RW10                a,e,i = 2.11, 0.43, 7                   q = 1.2008
Date    TT    R. A. (2000) Decl.     Delta      r     Elong.  Phase     V
2003 09 08    20 56.00   -24 20.1    0.342    1.300   144.1    27.0    18.9
2003 09 18    21 13.36   -18 57.6    0.403    1.340   140.3    28.6    19.3
2003 09 28    21 30.02   -14 34.8    0.478    1.385   135.7    30.3    19.8
2003 10 08    21 46.54   -10 59.1    0.565    1.434   130.8    31.8    20.3
2003 10 18    22 03.08   -07 57.8    0.664    1.485   125.8    33.0    20.8
2003 10 28    22 19.76   -05 20.8    0.774    1.539   120.6    33.8    21.2
2003 11 07    22 36.64   -02 59.7    0.894    1.594   115.4    34.2    21.6
2003 11 17    22 53.69   -00 49.3    1.024    1.650   110.1    34.2    22.0

Timothy B. Spahr             (C) Copyright 2003 MPC           M.P.E.C. 2003-R69

Read MPEC 2003-R68 Read MPEC 2003-R70


Our Web policy. Index to the CBAT/MPC/ICQ pages.


Valid HTML 4.01!